67P/Churyumov-Gerasimenko (1996)

Japanese version
Home page
Updated on May 5, 2012

---------------------------------------------------------------------

* Profile

* Orbital Elements

Epoch 1995 Dec. 29.0 TT = JDT 2450080.5
T 1996 Jan. 17.65588 TT                                 MPC
q   1.3000283            (2000.0)            P               Q
n   0.14953272     Peri.   11.38589     +0.46458282     -0.88028366
a   3.5154308      Node    51.00727     +0.80242354     +0.37251784
e   0.6301937      Incl.    7.11343     +0.37453873     +0.29382162
P   6.59
From 2745 observations 1969 Sept. 11-2012 Apr. 25, mean residual 0".8.
     Nongravitational parameters A1 = +0.08, A2 = +0.0100.

* Finding Charts

* 1995 Apr. 3 - 1996 Apr. 17
* 1996 Mar. 28 - 1997 May 22

* Magnitudes Graph

        m1 = 9.0 + 5 log d + 15 log r(t - 40)

---------------------------------------------------------------------

The orbital elements are published on M.P.E.C. 2012-J16.
The charts are made with StellaNavigator Ver.2.0 for Windows (AstroArts / ASCII).
The magnitudes graphs are made with Comet for Windows.

---------------------------------------------------------------------

Copyright(C) Seiichi Yoshida (comet@aerith.net). All rights reserved.